Regional Weather Roundup
Issued by NWS

Home | Current Version | Previous Version | Text Only | Print | Product List | Glossary On
Versions: 1 2 3 4 5 6 7 8 9 10 11 12 13 14 15 16 17 18 19 20 21 22 23 24 25 26 27 28 29 30 31 32 33 34 35 36 37 38 39 40 41 42 43 44 45 46 47 48 49 50
000
ASUS45 KBOU 011710
RWRCO

WEATHER ROUNDUP FOR COLORADO
NATIONAL WEATHER SERVICE DENVER/BOULDER CO
1000 AM MST MON MAR 01 2021

NOTE: "FAIR" INDICATES FEW OR NO CLOUDS BELOW 12000 FEET WITH NO
SIGNIFICANT WEATHER AND/OR OBSTRUCTIONS TO VISIBILITY.

COZ001>005-013-030-031-011800-
...NORTHWEST COLORADO...

CITY           SKY/WX    TMP DP  RH WIND       PRES   REMARKS
CRAIG          FAIR      21   5  50 E14       30.41F WCI   8
HAYDEN         FAIR      14   2  58 SE12      30.41F WCI   0
MEEKER         FAIR      17   4  56 CALM      30.40F
RANGELY        FAIR      26   7  44 NE6       30.43F WCI  19
RABBIT EARS PA FAIR      10   7  85 CALM      30.30S
STEAMBOAT SPGS FAIR       9  -1  64 CALM      30.39F
WALDEN         FAIR      11  -2  55 CALM      30.37R
$$

COZ006>008-011-011800-
...WEST CENTRAL VALLEYS...

CITY           SKY/WX    TMP DP  RH WIND       PRES   REMARKS
GRAND JUNCTION FAIR      32   0  25 SE10      30.43S WCI  24
MONTROSE       FAIR      28   1  31 CALM      30.42F
EAGLE          FAIR      26   6  42 CALM      30.47F
RIFLE          FAIR      26   5  40 CALM      30.44F
DELTA          FAIR      29   0  28 CALM      30.44F
NUCLA          NOT AVBL
$$

COZ017>023-064>068-011800-
...SOUTHWEST COLORADO...

CITY           SKY/WX    TMP DP  RH WIND       PRES   REMARKS
DURANGO        FAIR      26   8  46 E5        30.36R WCI  20
CORTEZ         FAIR      30   6  36 CALM      30.37R
PAGOSA SPRINGS FAIR      26  -2  29 CALM      30.35R
TELLURIDE      FAIR      23   0  36 CALM      30.31S
WOLF CREEK PAS FAIR      23  -8  25 CALM      30.35R
$$

COZ009-010-012-014-032>034-037-058>063-011800-
...CENTRAL COLORADO...

CITY           SKY/WX    TMP DP  RH WIND       PRES   REMARKS
ASPEN          FAIR      16   0  49 N8        30.33F WCI   5
BUENA VISTA    FAIR      25  -5  26 CALM      30.33S
COPPER MTN     FAIR      30  10  43 CALM        N/A
BERTHOUD PASS  FAIR      14   0  52 W5        30.28R WCI   6
DAKOTA HILL    FAIR      27   3  36 SW3       30.26R
COTTONWOOD PAS FAIR      27  -6  24 E3        30.29R
GUNNISON       FAIR       6  -4  63 CALM      30.43F
GRANBY         FAIR       2  -6  69 CALM      30.40F
KREMMLING      FAIR       5  -4  66 CALM      30.46F
LEADVILLE      FAIR      21  -2  36 NW3       30.27F
MONARCH PASS   FAIR      21  -6  30 S5        30.39R WCI  15
SALIDA         FAIR      26  -4  27 CALM      30.42S
SUNLIGHT       FAIR      18   9  68 E5        30.33R WCI  11
WILKERSON PASS FAIR      23  -4  30 CALM      30.30R
$$

COZ069>075-011800-
...SAN LUIS VALLEY/SANGRE DE CRISTO MOUNTAINS...

CITY           SKY/WX    TMP DP  RH WIND       PRES   REMARKS
ALAMOSA        FAIR      25   1  35 CALM      30.35S
DEL NORTE      FAIR      27  -4  26 CALM      30.34S
LA VETA PASS   FAIR      19  -9  27 E5        30.29R WCI  13
SAGUACHE       FAIR      28   0  29 SE9       30.34R WCI  20
$$

COZ035-036-038>040-011800-
...NORTHERN COLORADO FRONT RANGE...

CITY           SKY/WX    TMP DP  RH WIND       PRES   REMARKS
DENVER INTL AP FAIR      37  10  32 SW5       30.31R
AURORA         SUNNY     37   6  27 S3        30.30R
WATKINS        NOT AVBL
ERIE           FAIR      33   9  36 CALM      30.32R
BOULDER        FAIR      34   9  35 CALM      30.30S
CENTENNIAL     FAIR      38   6  26 S9        30.28S
BROOMFIELD     SUNNY     36   9  32 N6        30.30R
FORT COLLINS   FAIR      36   9  32 VRB3      30.31F
LONGMONT       FAIR      38  10  32 CALM      30.33S
$$

COZ041-046-047-076>085-087-088-011800-
...PIKES PEAK/PALMER DIVIDE AND SOUTHERN FOOTHILLS...

CITY           SKY/WX    TMP DP  RH WIND       PRES   REMARKS
COLO. SPRINGS  FAIR      37   4  25 S12       30.34R
A. F. ACADEMY  FAIR      37  -2  19 SE16      30.30S
SCHRIEVER AFB  NOT AVBL
CHEYENNE MTN   FAIR      33   1  24 SE16G22   30.26R WCI  23
ELLICOTT       FAIR      36   4  25 S9        30.36R
FALCON         FAIR      35  -1  21 SW8G17    30.33S WCI  28
FORT CARSON    FAIR      38   3  22 SE14      30.33R
LIMON          FAIR      38   5  25 CALM      30.33R
MONUMENT HILL  FAIR      34   1  25 S14       30.31S WCI  24
CANON CITY     FAIR      41   0  17 NW8       30.35S
WALSENBURG     NOT AVBL
TRINIDAD       FAIR      37   2  22 VRB3      30.37R
$$

COZ042>045-048>051-090-091-011800-
...NORTHEAST COLORADO...

CITY           SKY/WX    TMP DP  RH WIND       PRES   REMARKS
GREELEY        FAIR      37   8  30 CALM      30.34S
AKRON          FAIR      34  11  38 NW9       30.33R WCI  27
BURLINGTON     FAIR      43  12  28 N10       30.35R
WRAY           FAIR      45  14  29 N10G17    30.34S
YUMA           FAIR      41  12  30 N17       30.33S
STERLING       FAIR      37  18  44 S9        30.32F
HOLYOKE        FAIR      45  14  29 NW9       30.34R
FORT MORGAN    FAIR      36   7  30 S6        30.34S
$$

COZ086-089-092>099-011800-
...SOUTHEAST COLORADO...

CITY           SKY/WX    TMP DP  RH WIND       PRES   REMARKS
PUEBLO         FAIR      40  11  30 SW5       30.37R
LA JUNTA       FAIR      39  17  41 VRB3      30.40R
LAMAR          FAIR      39  16  39 W8        30.38S
SPRINGFIELD      N/A     45   8  22 N7        30.36S
$$



USA.gov is the U.S. government's official web portal to all federal, state and local government web resources and services.